TimeEDT,TemperatureF,Dew PointF,Humidity,Sea Level PressureIn,VisibilityMPH,Wind Direction,Wind SpeedMPH,Gust SpeedMPH,PrecipitationIn,Events,Conditions,WindDirDegrees,DateUTC
12:15 AM,59.4,58.6,97,30.10,4.0,Calm,Calm,-,N/A,,Clear,0,2013-05-21 04:15:00
12:35 AM,59.0,58.1,97,30.10,5.0,Calm,Calm,-,N/A,,Clear,0,2013-05-21 04:35:00
12:55 AM,59.0,58.1,97,30.10,2.5,Calm,Calm,-,N/A,,Clear,0,2013-05-21 04:55:00
1:15 AM,57.2,56.3,97,30.10,4.0,Calm,Calm,-,N/A,,Clear,0,2013-05-21 05:15:00
1:35 AM,57.0,56.1,97,30.10,2.5,Calm,Calm,-,N/A,,Scattered Clouds,0,2013-05-21 05:35:00
1:55 AM,56.5,55.6,97,30.11,3.0,Calm,Calm,-,N/A,,Overcast,0,2013-05-21 05:55:00
2:15 AM,56.7,55.8,97,30.10,5.0,Calm,Calm,-,N/A,,Mostly Cloudy,0,2013-05-21 06:15:00
2:35 AM,56.7,55.8,97,30.10,7.0,Calm,Calm,-,N/A,,Overcast,0,2013-05-21 06:35:00
2:55 AM,57.6,56.7,97,30.10,7.0,Calm,Calm,-,N/A,,Overcast,0,2013-05-21 06:55:00
3:15 AM,57.4,56.5,97,30.09,5.0,Calm,Calm,-,N/A,,Overcast,0,2013-05-21 07:15:00
3:35 AM,57.2,56.3,97,30.09,5.0,Calm,Calm,-,N/A,,Overcast,0,2013-05-21 07:35:00
3:55 AM,57.2,56.3,97,30.08,2.5,Calm,Calm,-,N/A,,Overcast,0,2013-05-21 07:55:00
4:15 AM,56.3,55.4,97,30.08,5.0,Calm,Calm,-,N/A,,Overcast,0,2013-05-21 08:15:00
4:35 AM,57.0,56.1,97,30.08,1.5,Calm,Calm,-,N/A,,Overcast,0,2013-05-21 08:35:00
4:55 AM,57.2,56.3,97,30.08,0.2,Calm,Calm,-,N/A,Fog,Fog,0,2013-05-21 08:55:00
5:15 AM,57.4,56.3,96,30.09,0.5,Calm,Calm,-,N/A,Fog,Fog,0,2013-05-21 09:15:00
5:35 AM,58.1,57.0,96,30.09,0.5,Calm,Calm,-,N/A,Fog,Fog,0,2013-05-21 09:35:00
5:55 AM,58.1,57.0,96,30.09,2.5,Calm,Calm,-,N/A,,Overcast,0,2013-05-21 09:55:00
6:15 AM,57.9,56.8,96,30.09,2.5,Calm,Calm,-,N/A,,Overcast,0,2013-05-21 10:15:00
6:35 AM,58.1,56.8,96,30.10,3.0,Calm,Calm,-,N/A,,Overcast,0,2013-05-21 10:35:00
6:55 AM,58.3,57.2,96,30.10,2.5,Calm,Calm,-,N/A,,Overcast,0,2013-05-21 10:55:00
7:15 AM,58.5,57.2,96,30.11,1.8,Calm,Calm,-,N/A,,Overcast,0,2013-05-21 11:15:00
7:35 AM,58.5,57.2,96,30.11,0.5,Calm,Calm,-,N/A,Fog,Fog,0,2013-05-21 11:35:00
7:55 AM,59.2,57.9,96,30.11,0.2,Calm,Calm,-,N/A,Fog,Fog,0,2013-05-21 11:55:00
8:15 AM,59.7,58.5,96,30.11,0.2,Calm,Calm,-,N/A,Fog,Fog,0,2013-05-21 12:15:00
8:35 AM,60.4,59.2,96,30.12,0.2,Calm,Calm,-,N/A,Fog,Fog,0,2013-05-21 12:35:00
8:55 AM,61.0,59.7,96,30.13,0.5,Calm,Calm,-,N/A,Fog,Fog,0,2013-05-21 12:55:00
9:15 AM,61.3,59.9,95,30.13,3.0,Calm,Calm,-,N/A,,Overcast,0,2013-05-21 13:15:00
9:35 AM,62.1,60.6,95,30.12,5.0,Calm,Calm,-,N/A,,Overcast,0,2013-05-21 13:35:00
9:55 AM,62.2,60.8,95,30.12,5.0,Calm,Calm,-,N/A,,Overcast,0,2013-05-21 13:55:00
10:15 AM,63.7,62.4,96,30.11,7.0,Calm,Calm,-,N/A,,Mostly Cloudy,0,2013-05-21 14:15:00
10:35 AM,65.7,64.2,95,30.10,10.0,Calm,Calm,-,N/A,,Scattered Clouds,0,2013-05-21 14:35:00
10:55 AM,69.8,65.3,86,30.10,10.0,Calm,Calm,-,N/A,,Clear,0,2013-05-21 14:55:00
11:15 AM,73.2,62.2,68,30.10,10.0,SE,3.5,-,N/A,,Clear,140,2013-05-21 15:15:00
11:35 AM,75.2,60.4,60,30.10,10.0,Calm,Calm,-,N/A,,Scattered Clouds,0,2013-05-21 15:35:00
11:55 AM,76.3,61.2,59,30.09,3.0,Calm,Calm,-,N/A,,Haze,0,2013-05-21 15:55:00
12:15 PM,76.6,61.0,58,30.09,10.0,WSW,3.5,-,N/A,,Clear,250,2013-05-21 16:15:00
12:35 PM,79.7,59.9,51,30.08,10.0,ENE,8.1,-,N/A,,Scattered Clouds,60,2013-05-21 16:35:00
12:55 PM,79.5,58.6,49,30.08,10.0,SW,4.6,-,N/A,,Scattered Clouds,230,2013-05-21 16:55:00
1:15 PM,79.7,59.2,49,30.07,10.0,WSW,6.9,-,N/A,,Scattered Clouds,250,2013-05-21 17:15:00
1:35 PM,81.0,58.3,46,30.06,10.0,SW,4.6,-,N/A,,Scattered Clouds,220,2013-05-21 17:35:00
1:55 PM,81.9,57.6,43,30.05,10.0,Calm,Calm,-,N/A,,Clear,0,2013-05-21 17:55:00
2:15 PM,82.0,58.5,45,30.04,10.0,West,3.5,-,N/A,,Clear,260,2013-05-21 18:15:00
2:35 PM,80.6,60.1,49,30.04,10.0,WSW,9.2,-,N/A,,Clear,240,2013-05-21 18:35:00
2:55 PM,77.9,60.8,56,30.04,10.0,Calm,Calm,-,N/A,,Clear,0,2013-05-21 18:55:00
3:15 PM,78.8,61.2,55,30.03,10.0,WSW,4.6,-,N/A,,Clear,250,2013-05-21 19:15:00
3:35 PM,82.6,59.0,45,30.01,10.0,Calm,Calm,-,N/A,,Clear,0,2013-05-21 19:35:00
3:55 PM,83.7,54.5,37,30.00,10.0,SSW,3.5,-,N/A,,Clear,200,2013-05-21 19:55:00
4:15 PM,82.8,57.4,42,30.00,10.0,Calm,Calm,-,N/A,,Clear,0,2013-05-21 20:15:00
4:35 PM,83.5,59.4,44,30.00,10.0,SE,5.8,-,N/A,,Scattered Clouds,140,2013-05-21 20:35:00
4:55 PM,81.7,59.2,46,30.00,10.0,East,8.1,17.3,N/A,,Scattered Clouds,100,2013-05-21 20:55:00
5:15 PM,80.6,57.2,45,29.99,10.0,East,4.6,-,N/A,,Scattered Clouds,100,2013-05-21 21:15:00
5:35 PM,81.0,57.7,45,29.99,10.0,East,4.6,-,N/A,,Scattered Clouds,100,2013-05-21 21:35:00
5:55 PM,79.3,61.0,53,29.98,10.0,ESE,5.8,16.1,N/A,,Scattered Clouds,110,2013-05-21 21:55:00
6:15 PM,77.5,61.3,57,29.98,10.0,ESE,4.6,-,N/A,,Scattered Clouds,120,2013-05-21 22:15:00
6:35 PM,75.7,59.9,58,30.00,10.0,SSW,9.2,-,N/A,,Scattered Clouds,210,2013-05-21 22:35:00
6:55 PM,66.7,60.8,81,30.02,4.0,East,3.5,-,0.32,Rain,Light Rain,80,2013-05-21 22:55:00
7:15 PM,65.5,62.2,89,30.03,10.0,ENE,5.8,-,0.07,Rain,Light Rain,60,2013-05-21 23:15:00
7:35 PM,65.1,63.5,94,30.05,7.0,Calm,Calm,-,0.07,,Mostly Cloudy,0,2013-05-21 23:35:00
7:55 PM,65.8,61.3,85,30.06,10.0,Calm,Calm,-,0.08,Rain,Light Rain,0,2013-05-21 23:55:00
8:15 PM,64.8,62.8,93,30.08,7.0,SW,6.9,-,0.01,Rain,Rain,220,2013-05-22 00:15:00
8:35 PM,64.0,61.0,90,30.07,1.5,Calm,Calm,-,0.05,Rain,Rain,0,2013-05-22 00:35:00
8:55 PM,63.5,61.7,94,30.07,7.0,Calm,Calm,-,0.10,Rain,Light Rain,0,2013-05-22 00:55:00
9:15 PM,63.5,62.6,97,30.06,7.0,East,3.5,-,0.04,Rain,Light Rain,100,2013-05-22 01:15:00
9:35 PM,63.5,62.8,97,30.05,4.0,Calm,Calm,-,0.08,Rain,Rain,0,2013-05-22 01:35:00
9:55 PM,63.3,62.6,97,30.03,7.0,West,3.5,-,0.12,Rain,Light Rain,270,2013-05-22 01:55:00
10:15 PM,62.6,62.1,98,30.04,7.0,Calm,Calm,-,0.03,,Scattered Clouds,0,2013-05-22 02:15:00
10:35 PM,62.4,61.9,98,30.06,7.0,Calm,Calm,-,0.05,,Clear,0,2013-05-22 02:35:00
10:55 PM,62.2,61.7,98,30.07,7.0,Calm,Calm,-,0.07,,Clear,0,2013-05-22 02:55:00
11:15 PM,61.7,61.2,98,30.08,5.0,Calm,Calm,-,0.02,,Clear,0,2013-05-22 03:15:00
11:35 PM,61.2,60.8,99,30.08,4.0,Calm,Calm,-,0.03,,Clear,0,2013-05-22 03:35:00
11:55 PM,61.0,60.3,97,30.09,5.0,West,3.5,-,0.04,,Scattered Clouds,260,2013-05-22 03:55:00